Calgary, Ontario

4:08 AM MDT on March 25, 2017 (GMT -0600)
Calgary International

Weather History for CYYC - October, 2012

Change the Weather History Date:

Sunday, October 14, 2012

  Actual Average Record
Temperature  
Mean Temperature 52 °F -  
Max Temperature 64 °F 47 °F 71 °F (2010)
Min Temperature 40 °F 23 °F 17 °F (2001)
Degree Days  
Heating Degree Days 13    
Growing Degree Days 2 (Base 50)    
Moisture  
Dew Point 36 °F    
Average Humidity 54    
Maximum Humidity 76    
Minimum Humidity 34    
Precipitation  
Precipitation 0.00 in 0.02 in - ()
Sea Level Pressure  
Sea Level Pressure 29.82 in    
Wind  
Wind Speed 9 mph ()    
Max Wind Speed 23 mph    
Max Gust Speed 33 mph    
Visibility 15.0 miles    
Events      
Averages and records for this station are not official NWS values.
T = Trace of Precipitation, MM = Missing Value Source: Averaged Metar Reports

Daily Weather History Graph

Daily Weather History Graph

Search for Another Location

Airport or City:

Trip Planner

Search our weather history database for the weather conditions in past years. The results will help you decide how hot, cold, wet, or windy it might be!

Date:

Astronomy

Oct. 14, 2012 Rise Set
Actual Time 7:58 AM MDT 6:44 PM MDT
Civil Twilight 7:25 AM MDT 7:17 PM MDT
Nautical Twilight 6:47 AM MDT 7:55 PM MDT
Astronomical Twilight 6:08 AM MDT 8:34 PM MDT
Moon 7:01 AM MDT (10/14) 6:04 PM MDT (10/14)
Length of Visible Light 11h 51m
Length of Day
10h 45m
Waning Crescent, 1% of the Moon is Illuminated
Oct 14
Waning Crescent
Oct 15
New
Oct 21
First Quarter
Oct 29
Full
Nov 6
Last Quarter

Hourly Weather History & Observations

Time (MDT) Temp. Windchill Dew Point Humidity Pressure Visibility Wind Dir Wind Speed Gust Speed Precip Events Conditions
12:00 AM 51 °F - 31 °F 34% 29.99 in 15 mi West 15.0 mph - -   Scattered Clouds
12:00 AM 51.8 °F - 32.0 °F 47% 29.99 in 15.0 mi WNW 16.1 mph - N/A   Partly Cloudy
1:00 AM 46.4 °F 41.5 °F 32.0 °F 57% 29.99 in 15.0 mi West 10.4 mph - N/A   Clear
2:00 AM 44.6 °F 40.2 °F 32.0 °F 61% 29.99 in 15.0 mi WSW 8.1 mph - N/A   Scattered Clouds
3:00 AM 44.6 °F 40.7 °F 32.0 °F 61% 30.00 in 15.0 mi West 6.9 mph - N/A   Mostly Cloudy
4:00 AM 44.6 °F 38.1 °F 33.8 °F 66% 30.00 in 15.0 mi West 13.8 mph - N/A   Mostly Cloudy
5:00 AM 44.6 °F 40.2 °F 32.0 °F 61% 29.98 in 15.0 mi WSW 8.1 mph - N/A   Mostly Cloudy
6:00 AM 44 °F - 34 °F 57% 29.97 in 15 mi SW 9.2 mph - -   Mostly Cloudy
6:00 AM 44.6 °F 39.2 °F 33.8 °F 66% 29.96 in 15.0 mi SW 10.4 mph - N/A   Mostly Cloudy
7:00 AM 44.6 °F 42.2 °F 33.8 °F 66% 29.95 in 15.0 mi WSW 4.6 mph - N/A   Overcast
8:00 AM 44.6 °F 41.4 °F 33.8 °F 66% 29.93 in 40.0 mi WSW 5.8 mph - N/A   Overcast
9:00 AM 42.8 °F 39.3 °F 35.6 °F 76% 29.92 in 40.0 mi WSW 5.8 mph - N/A   Overcast
10:00 AM 46.4 °F 42.9 °F 35.6 °F 66% 29.86 in 40.0 mi SW 6.9 mph - N/A   Overcast
11:00 AM 46.4 °F 42.9 °F 37.4 °F 71% 29.84 in 40.0 mi SW 6.9 mph - N/A   Overcast
12:00 PM 51 °F - 40 °F 55% 29.80 in 37 mi SSW 10.4 mph - -   Overcast
12:00 PM 50.0 °F - 39.2 °F 66% 29.80 in 40.0 mi SSW 11.5 mph - N/A   Overcast
1:00 PM 53.6 °F - 41.0 °F 62% 29.77 in 40.0 mi SW 8.1 mph - N/A   Overcast
2:00 PM 57.2 °F - 42.8 °F 59% 29.72 in 40.0 mi SSW 4.6 mph - N/A   Overcast
3:00 PM 60.8 °F - 42.8 °F 52% 29.68 in 40.0 mi SW 4.6 mph - N/A   Overcast
4:00 PM 62.6 °F - 41.0 °F 45% 29.65 in 40.0 mi West 6.9 mph - N/A   Overcast
5:00 PM 64.4 °F - 41.0 °F 42% 29.65 in 40.0 mi West 9.2 mph - N/A   Overcast
6:00 PM 62 °F - 41 °F 34% 29.66 in 37 mi WNW 4.6 mph - -   Overcast
6:00 PM 62.6 °F - 41.0 °F 45% 29.66 in 40.0 mi West 5.8 mph - N/A   Overcast
7:00 PM 60.8 °F - 35.6 °F 39% 29.65 in 40.0 mi West 16.1 mph 23.0 mph N/A   Overcast
8:00 PM 60.8 °F - 35.6 °F 39% 29.63 in 15.0 mi WSW 23.0 mph 33.4 mph N/A   Mostly Cloudy
9:00 PM 55.4 °F - 35.6 °F 47% 29.66 in 15.0 mi WSW 15.0 mph - N/A   Mostly Cloudy
9:46 PM 55.4 °F - 35.6 °F 47% 29.68 in 15.0 mi West 10.4 mph - N/A   Scattered Clouds
10:00 PM 57.2 °F - 35.6 °F 44% 29.66 in 15.0 mi WSW 6.9 mph - N/A   Scattered Clouds
11:00 PM 55.4 °F - 35.6 °F 47% 29.65 in 15.0 mi West 4.6 mph - N/A   Scattered Clouds